When you browse on this site, cookies collect data to enhance your experience and personalize the content and advertising you see.
Visit our Privacy Policy to learn more. By continuing to use the site, you agree to this use of cookies and data.
  • In Portugal
  • List of Countries
  • For 7 days
  • Water Temperature
  • Satellite Maps
  • Weather Map
  • Weather Widgets
  • user-avatar
    Login

    Hourly Weather Holdowiec

    Today, 22 March, Friday

    Time Temperature Precipitation Wind Pressure Humidity
    00:00 +7°C° 0 mm 2 mps 756 mmHg 87%
    01:00 +5°C° 0 mm 3 mps 756 mmHg 89%
    02:00 +7°C° 0 mm 3 mps 756 mmHg 88%
    03:00 +7°C° 0 mm 3 mps 756 mmHg 87%
    04:00 +7°C° 0 mm 3 mps 756 mmHg 86%
    05:00 +8°C° 0 mm 3 mps 756 mmHg 86%
    06:00 +8°C° 0 mm 3 mps 756 mmHg 85%
    07:00 +9°C° 0 mm 3 mps 756 mmHg 84%
    08:00 +9°C° 0 mm 3 mps 756 mmHg 83%
    09:00 +9°C° 0 mm 3 mps 756 mmHg 82%
    10:00 +10°C° 0 mm 3 mps 756 mmHg 82%
    11:00 +11°C° 0 mm 3 mps 756 mmHg 78%
    12:00 +11°C° 0 mm 3 mps 756 mmHg 75%
    13:00 +12°C° 0 mm 3 mps 756 mmHg 72%
    14:00 +12°C° 0 mm 3 mps 756 mmHg 71%
    15:00 +13°C° 0 mm 2 mps 755 mmHg 69%
    16:00 +14°C° 0 mm 2 mps 755 mmHg 68%
    17:00 +13°C° 0 mm 2 mps 755 mmHg 72%
    18:00 +12°C° 0 mm 2 mps 755 mmHg 76%
    19:00 +10°C° 0 mm 2 mps 755 mmHg 79%
    20:00 +9°C° 0 mm 2 mps 755 mmHg 82%
    21:00 +8°C° 0 mm 2 mps 756 mmHg 84%
    22:00 +8°C° 0 mm 2 mps 756 mmHg 86%
    23:00 +7°C° 0 mm 2 mps 755 mmHg 87%

    Tomorrow, 23 March, Saturday

    Time Temperature Precipitation Wind Pressure Humidity
    00:00 +7°C° 0 mm 1 mps 755 mmHg 89%
    01:00 +7°C° 0 mm 1 mps 755 mmHg 90%
    02:00 +6°C° 0 mm 1 mps 755 mmHg 90%
    03:00 +6°C° 0 mm 1 mps 754 mmHg 91%
    04:00 +6°C° 0 mm 1 mps 754 mmHg 91%
    05:00 +6°C° 0 mm 1 mps 754 mmHg 90%
    06:00 +6°C° 0 mm 1 mps 754 mmHg 88%
    07:00 +7°C° 0 mm 1 mps 754 mmHg 87%
    08:00 +7°C° 0 mm 2 mps 754 mmHg 78%
    09:00 +9°C° 0 mm 2 mps 754 mmHg 70%
    10:00 +12°C° 0 mm 2 mps 753 mmHg 61%
    11:00 +13°C° 0 mm 2 mps 753 mmHg 55%
    12:00 +14°C° 0 mm 2 mps 753 mmHg 49%
    13:00 +15°C° 0 mm 2 mps 752 mmHg 44%
    14:00 +15°C° 0 mm 2 mps 752 mmHg 43%
    15:00 +16°C° 0 mm 1 mps 751 mmHg 41%
    16:00 +16°C° 0 mm 1 mps 751 mmHg 40%
    17:00 +15°C° 0 mm 1 mps 751 mmHg 44%
    18:00 +13°C° 0 mm 1 mps 751 mmHg 48%
    19:00 +12°C° 0 mm 1 mps 751 mmHg 52%
    20:00 +11°C° 0 mm 1 mps 751 mmHg 54%
    21:00 +11°C° 0 mm 1 mps 751 mmHg 57%
    22:00 +9°C° 0 mm 2 mps 751 mmHg 59%
    23:00 +9°C° 0 mm 2 mps 751 mmHg 64%

    Day after tomorrow, 24 March, Sunday

    Time Temperature Precipitation Wind Pressure Humidity
    00:00 +9°C° 0 mm 2 mps 751 mmHg 70%
    01:00 +9°C° 0 mm 2 mps 751 mmHg 75%
    02:00 +9°C° 0 mm 2 mps 751 mmHg 78%
    03:00 +9°C° 0 mm 2 mps 750 mmHg 81%
    04:00 +9°C° 0 mm 3 mps 750 mmHg 83%
    05:00 +9°C° 0.1 mm 3 mps 751 mmHg 85%
    06:00 +9°C° 0.1 mm 3 mps 751 mmHg 86%
    07:00 +8°C° 0.1 mm 3 mps 751 mmHg 88%
    08:00 +9°C° 0 mm 3 mps 751 mmHg 78%
    09:00 +10°C° 0 mm 3 mps 751 mmHg 69%
    10:00 +10°C° 0 mm 3 mps 751 mmHg 59%
    11:00 +11°C° 0 mm 3 mps 751 mmHg 55%
    12:00 +12°C° 0 mm 3 mps 750 mmHg 50%
    13:00 +13°C° 0 mm 3 mps 750 mmHg 45%
    14:00 +12°C° 0 mm 4 mps 750 mmHg 44%
    15:00 +12°C° 0 mm 4 mps 749 mmHg 43%
    16:00 +11°C° 0 mm 4 mps 749 mmHg 41%
    17:00 +11°C° 0 mm 3 mps 749 mmHg 42%
    18:00 +10°C° 0 mm 3 mps 749 mmHg 43%
    19:00 +9°C° 0 mm 2 mps 749 mmHg 45%
    20:00 +8°C° 0 mm 2 mps 749 mmHg 49%
    21:00 +7°C° 0 mm 2 mps 749 mmHg 53%
    22:00 +6°C° 0 mm 2 mps 749 mmHg 57%
    23:00 +5°C° 0 mm 2 mps 749 mmHg 59%

    25 March, Monday

    Time Temperature Precipitation Wind Pressure Humidity
    00:00 +5°C° 0 mm 2 mps 749 mmHg 61%
    01:00 +4°C° 0 mm 2 mps 749 mmHg 64%
    02:00 +4°C° 0 mm 2 mps 749 mmHg 65%
    03:00 +4°C° 0 mm 2 mps 748 mmHg 66%
    04:00 +2°C° 0 mm 3 mps 748 mmHg 68%
    05:00 +3°C° 0 mm 3 mps 748 mmHg 66%
    06:00 +3°C° 0 mm 3 mps 748 mmHg 64%
    07:00 +4°C° 0 mm 4 mps 748 mmHg 62%
    08:00 +5°C° 0 mm 4 mps 747 mmHg 58%
    09:00 +6°C° 0 mm 5 mps 747 mmHg 54%
    10:00 +7°C° 0 mm 6 mps 746 mmHg 50%
    11:00 +8°C° 0 mm 7 mps 746 mmHg 46%
    12:00 +8°C° 0 mm 7 mps 745 mmHg 42%
    13:00 +9°C° 0 mm 7 mps 744 mmHg 38%
    14:00 +7°C° 0.1 mm 8 mps 744 mmHg 42%
    15:00 +7°C° 0.1 mm 8 mps 743 mmHg 45%
    16:00 +7°C° 0.1 mm 8 mps 742 mmHg 48%
    17:00 +6°C° 0.9 mm 8 mps 743 mmHg 53%
    18:00 +4°C° 0.9 mm 7 mps 743 mmHg 58%
    19:00 +3°C° 0.9 mm 7 mps 743 mmHg 63%
    20:00 +3°C° 0.1 mm 6 mps 743 mmHg 65%
    21:00 +2°C° 0.1 mm 6 mps 744 mmHg 68%
    22:00 +2°C° 0.1 mm 6 mps 744 mmHg 71%
    23:00 +1°C° 0.3 mm 6 mps 744 mmHg 74%

    26 March, Tuesday

    Time Temperature Precipitation Wind Pressure Humidity
    00:00 +1°C° 0.3 mm 6 mps 745 mmHg 77%
    01:00 +1°C° 0.3 mm 6 mps 745 mmHg 80%
    02:00 0°C° 0.3 mm 7 mps 746 mmHg 81%
    03:00 -1°C° 0.3 mm 7 mps 747 mmHg 81%
    04:00 -1°C° 0.3 mm 7 mps 748 mmHg 82%
    05:00 -1°C° 0 mm 7 mps 748 mmHg 83%
    06:00 -1°C° 0 mm 6 mps 749 mmHg 83%
    07:00 -1°C° 0 mm 6 mps 750 mmHg 84%
    08:00 +1°C° 0.1 mm 6 mps 751 mmHg 82%
    09:00 +1°C° 0.1 mm 6 mps 752 mmHg 80%
    10:00 +2°C° 0.1 mm 6 mps 753 mmHg 78%
    11:00 +2°C° 0.1 mm 6 mps 753 mmHg 76%
    12:00 +2°C° 0.1 mm 6 mps 753 mmHg 74%
    13:00 +2°C° 0.1 mm 6 mps 753 mmHg 72%
    14:00 +3°C° 0 mm 5 mps 754 mmHg 68%
    15:00 +3°C° 0 mm 5 mps 754 mmHg 63%
    16:00 +5°C° 0 mm 4 mps 754 mmHg 59%
    17:00 +4°C° 0 mm 4 mps 754 mmHg 63%
    18:00 +2°C° 0 mm 3 mps 755 mmHg 66%
    19:00 +2°C° 0 mm 2 mps 755 mmHg 70%
    20:00 +2°C° 0 mm 2 mps 755 mmHg 72%
    21:00 +2°C° 0 mm 2 mps 755 mmHg 75%
    22:00 +2°C° 0 mm 2 mps 756 mmHg 77%
    23:00 +1°C° 0 mm 2 mps 755 mmHg 78%

    27 March, Wednesday

    Time Temperature Precipitation Wind Pressure Humidity
    00:00 0°C° 0 mm 3 mps 755 mmHg 78%
    01:00 0°C° 0 mm 3 mps 755 mmHg 79%
    02:00 0°C° 0 mm 3 mps 755 mmHg 78%
    03:00 -1°C° 0 mm 3 mps 755 mmHg 78%
    04:00 -1°C° 0 mm 3 mps 755 mmHg 78%
    05:00 -1°C° 0 mm 4 mps 754 mmHg 73%
    06:00 0°C° 0 mm 4 mps 754 mmHg 68%
    07:00 +1°C° 0 mm 4 mps 754 mmHg 64%
    08:00 +2°C° 0 mm 5 mps 754 mmHg 59%
    09:00 +3°C° 0 mm 5 mps 754 mmHg 54%
    10:00 +5°C° 0 mm 5 mps 754 mmHg 49%
    11:00 +5°C° 0 mm 6 mps 754 mmHg 50%
    12:00 +7°C° 0 mm 6 mps 753 mmHg 50%
    13:00 +8°C° 0 mm 6 mps 753 mmHg 51%
    14:00 +7°C° 0 mm 6 mps 753 mmHg 56%
    15:00 +7°C° 0 mm 5 mps 753 mmHg 62%
    16:00 +7°C° 0 mm 5 mps 753 mmHg 67%
    17:00 +6°C° 0 mm 4 mps 753 mmHg 72%
    18:00 +5°C° 0 mm 4 mps 753 mmHg 77%
    19:00 +5°C° 0 mm 3 mps 754 mmHg 82%
    20:00 +5°C° 0.1 mm 3 mps 754 mmHg 84%
    21:00 +4°C° 0.1 mm 3 mps 754 mmHg 86%
    22:00 +4°C° 0.1 mm 3 mps 754 mmHg 87%
    23:00 +4°C° 0 mm 3 mps 754 mmHg 88%
    Show more